User: anonymous   Login
Location: Bothwell
(42.3833°S, 147.0000°E)
Time: 23:51:21
(UTC+10:00)
Language:

M-CUBED/EXP-1 PRIME - Orbit

View from above orbital plane
View from above orbital plane
View from above satellite
View from above satellite

Ground track
Ground track

The orbit data is extracted from the following two-line orbital elements,

1 37855U 11061F   22267.75907677  .00015603  00000-0  65487-3 0  9992
2 37855 101.7204  79.6043 0148231 124.5559 236.9750 15.14151347596255
Epoch (UTC): 24 September 2022 18:13:04
Eccentricity: 0.0148231
inclination: 101.7204°
perigee height: 421 km
apogee height: 626 km
right ascension of ascending node: 79.6043°
argument of perigee: 124.5559°
revolutions per day: 15.14151347
mean anomaly at epoch: 236.9750°
orbit number at epoch: 59625

The dashed part of the orbit path shows where the satellite is in the earth's shadow,  

DLR